[[{"header":{"parameterUnit":"m.s-1","parameterCategory":1,"la1":30.2991,"la2":30.254,"lo1":-89.0895,"lo2":-89.0444,"dy":0.0017,"dx":0.0017,"nx":28,"ny":28,"refTime":"2024-03-06T09:00:00:Z","depth":0,"parameterNumber":2,"parameterNumberName":"U-component_of_WINDS"},"data":[0,0,0,0,0,0,0,0,0,0,0,0,0,0,0,0,0,0,0,0,0,0,0,0,0,0,0,0,0,0,0,0,0,0,0,0,0,0,0,0,0,0,0,0,0,0,0,0,0,0,0,0,0,0,0,0,0,0,-3.3983,-3.3983,0,-3.4004,-3.4004,-3.4004,-3.3985,-3.3984,-3.3983,-3.3982,-3.4004,-3.4006,-3.4007,0,0,0,0,0,0,0,0,0,0,0,0,0,-3.3928,-3.3929,-3.3983,-3.3983,-3.3983,-3.4004,-3.4004,-3.4004,-3.3985,-3.3984,-3.3983,-3.3982,-3.4004,-3.4006,-3.4007,0,0,0,0,0,0,0,0,0,0,0,0,0,-3.3951,-3.3929,-3.3983,-3.3976,-3.3975,-3.4004,-3.4004,-3.4005,-3.3985,-3.3984,-3.3983,-3.3981,-3.4003,-3.4005,-3.4007,-3.4044,0,0,-3.4013,-3.4014,0,0,0,0,0,0,0,0,-3.3949,-3.3953,-3.3977,-3.3976,-3.3976,-3.399,-3.3993,-3.4018,-3.3985,-3.3981,-3.3982,-3.3981,-3.4001,-3.4003,-3.401,-3.4045,-3.4046,-3.4014,-3.4015,-3.4016,-3.4016,0,0,0,0,0,0,0,-3.3948,-3.3952,-3.3991,-3.3977,-3.3977,-3.3973,-3.3975,-3.3998,-3.3998,-3.3982,-3.398,-3.3983,-3.4,-3.4008,-3.401,-3.4046,-3.4014,-3.4015,-3.4017,-3.4017,-3.4114,-3.4116,0,0,0,0,0,0,-3.3947,-3.3951,-3.399,-3.3992,-3.396,-3.3975,-3.3977,-3.3987,-3.3997,-3.3998,-3.3984,-3.3982,-3.4005,-3.4008,-3.4011,-3.4054,-3.4016,-3.4018,-3.4019,-3.4113,-3.4115,-3.4116,0,0,0,0,0,0,-3.3946,-3.3951,-3.399,-3.3971,-3.3976,-3.3977,-3.3989,-3.3988,-3.3995,-3.3999,-3.3999,-3.3991,-3.4004,-3.4008,-3.4036,-3.4055,-3.4018,-3.402,-3.4111,-3.4114,-3.4115,-3.4141,0,0,0,0,0,0,-3.3944,-3.395,-3.3963,-3.3971,-3.3977,-3.4014,-3.399,-3.3989,-3.3999,-3.3996,-3.4006,-3.4006,-3.4003,-3.4033,-3.4038,-3.4057,-3.4022,-3.411,-3.4112,-3.4115,-3.4139,-3.4144,-3.4148,0,0,0,0,0,-3.3942,-3.3969,-3.3964,-3.3969,-3.3992,-3.4015,-3.4018,-3.4014,-3.4,-3.4014,-3.4017,-3.4006,-3.4053,-3.4036,-3.4041,-3.4061,-3.4108,-3.4112,-3.4115,-3.4136,-3.4143,-3.4148,0,0,0,0,0,0,-3.3962,-3.397,-3.3964,-3.3994,-3.4004,-3.4011,-3.4027,-3.402,-3.4034,-3.4031,-3.4027,-3.4029,-3.4059,-3.4063,-3.4045,-3.4098,-3.4078,-3.4083,-3.4093,-3.4099,-3.4104,-3.4101,-3.4024,0,0,0,0,0,-3.397,-3.3987,-3.3993,-3.4019,-3.4025,-3.4026,-3.4035,-3.4032,-3.4042,-3.4046,-3.4051,-3.4061,-3.4079,-3.409,-3.4106,-3.4141,-3.4143,-3.4157,-3.4162,-3.4166,-3.4169,-3.4189,-3.4196,-3.4126,-3.4126,-3.4126,0,0,-3.3986,-3.3993,-3.4003,-3.4023,-3.4031,-3.4049,-3.4029,-3.4049,-3.4063,-3.4049,-3.4075,-3.408,-3.4092,-3.4124,-3.4138,-3.4128,-3.4189,-3.417,-3.4173,-3.4174,-3.4193,-3.4199,-3.4205,-3.4128,-3.4128,-3.4128,0,0,-3.4025,-3.4031,-3.4054,-3.4063,-3.4074,-3.4076,-3.4081,-3.4091,-3.4093,-3.4121,-3.4111,-3.4129,-3.4158,-3.4167,-3.4175,-3.4223,-3.4213,-3.4228,-3.4252,-3.4272,-3.4278,-3.4282,-3.4299,-3.4305,-3.4232,-3.4232,-3.4232,0,-3.4043,-3.4069,-3.4067,-3.4088,-3.4098,-3.4088,-3.4111,-3.412,-3.4136,-3.4144,-3.4133,-3.4172,-3.4179,-3.4213,-3.4225,-3.4233,-3.424,-3.4225,-3.4277,-3.4282,-3.4286,-3.4302,-3.4308,-3.4234,-3.4233,-3.4233,-3.4233,0,-3.4092,-3.4111,-3.4128,-3.4145,-3.4157,-3.4179,-3.4181,-3.4194,-3.4191,-3.4194,-3.4223,-3.4232,-3.4251,-3.4259,-3.4256,-3.4294,-3.4288,-3.4278,-3.4257,-3.4294,-3.4309,-3.4315,-3.4236,-3.4235,-3.4235,-3.4234,0,0,-3.4139,-3.4157,-3.4163,-3.4171,-3.4186,-3.42,-3.4224,-3.4242,-3.4254,-3.4267,-3.4287,-3.4314,-3.4305,-3.4315,-3.4314,-3.4331,-3.4368,-3.4319,-3.4319,-3.4327,-3.4412,-3.4418,-3.4425,-3.4364,-3.4365,-3.4366,-3.441,0,-3.4177,-3.4216,-3.4217,-3.4253,-3.4272,-3.4265,-3.4286,-3.4297,-3.4302,-3.4319,-3.4324,-3.4343,-3.4331,-3.4337,-3.4354,-3.436,-3.4385,-3.4357,-3.4382,-3.4383,-3.4377,-3.4432,-3.4439,-3.448,-3.4416,-3.4417,-3.4418,0,-3.4226,-3.4241,-3.428,-3.4294,-3.4301,-3.432,-3.4338,-3.4354,-3.4369,-3.4371,-3.4384,-3.4381,-3.4406,-3.4388,-3.4423,-3.4404,-3.4416,-3.4421,-3.4422,-3.4422,-3.44,-3.4433,-3.4493,-3.4498,-3.4427,-3.4426,-3.4425,0,-3.4255,-3.4286,-3.4314,-3.4321,-3.4338,-3.4352,-3.4359,-3.4373,-3.4385,-3.4402,-3.4409,-3.4429,-3.444,-3.4456,-3.4458,-3.4445,-3.4494,-3.4476,-3.4497,-3.4497,-3.4505,-3.4504,-3.4566,-3.4515,-3.4515,-3.4515,-3.4515,0,-3.4297,-3.432,-3.4327,-3.4344,-3.4371,-3.4373,-3.44,-3.4407,-3.442,-3.4439,-3.4435,-3.4453,-3.4457,-3.4476,-3.4479,-3.4508,-3.4513,-3.4516,-3.4516,-3.4515,-3.4515,-3.452,-3.4517,-3.4517,-3.4516,-3.4516,-3.4516,0,-3.4332,-3.4338,-3.4368,-3.4383,-3.4387,-3.4407,-3.442,-3.4437,-3.4443,-3.4467,-3.4473,-3.4482,-3.4504,-3.451,-3.4537,-3.4539,-3.4573,-3.4572,-3.4568,-3.4567,-3.4588,-3.4585,-3.4654,-3.4663,-3.4608,-3.4609,-3.4609,0,-3.4357,-3.4376,-3.4393,-3.4406,-3.4414,-3.4435,-3.4447,-3.4451,-3.4465,-3.4485,-3.45,-3.4522,-3.454,-3.4577,-3.4587,-3.4608,-3.4606,-3.4629,-3.4609,-3.4608,-3.4605,-3.4603,-3.4605,-3.4632,-3.4632,-3.4633,-3.4633,0,-3.4401,-3.4404,-3.4422,-3.4442,-3.4458,-3.4474,-3.4489,-3.45,-3.4506,-3.4522,-3.4546,-3.456,-3.4589,-3.4612,-3.4634,-3.4643,-3.4639,-3.464,-3.4646,-3.4644,-3.4641,-3.4642,-3.4577,-3.4637,-3.4637,-3.4637,-3.4636,-3.4636,-3.4431,-3.4448,-3.4463,-3.4484,-3.4497,-3.4512,-3.4529,-3.4538,-3.4558,-3.4581,-3.4583,-3.4609,-3.4626,-3.4656,-3.4667,-3.4688,-3.4681,-3.4689,-3.4691,-3.4693,-3.4694,-3.4639,-3.4692,-3.4692,-3.4692,-3.4692,-3.4692,0,-3.4473,-3.4484,-3.4504,-3.4526,-3.4544,-3.454,-3.4558,-3.4573,-3.4596,-3.4612,-3.4631,-3.4659,-3.4682,-3.4695,-3.4718,-3.4733,-3.4732,-3.4739,-3.4736,-3.4739,-3.4699,-3.4692,-3.4739,-3.4739,-3.4739,-3.4739,-3.4739,-3.4739,-3.4497,-3.4525,-3.4531,-3.4566,-3.4577,-3.4602,-3.4613,-3.4627,-3.464,-3.4672,-3.4691,-3.47,-3.4716,-3.4741,-3.4762,-3.4766,-3.4774,-3.4782,-3.4784,-3.4746,-3.4741,-3.4737,-3.4729,-3.4784,-3.4784,-3.4821,-3.4822,-3.4822]},{"header":{"parameterUnit":"m.s-1","parameterCategory":1,"la1":30.2991,"la2":30.254,"lo1":-89.0895,"lo2":-89.0444,"dy":0.0017,"dx":0.0017,"nx":28,"ny":28,"refTime":"2024-03-06T09:00:00:Z","depth":0,"parameterNumber":3,"parameterNumberName":"V-component_of_WINDS"},"data":[0,0,0,0,0,0,0,0,0,0,0,0,0,0,0,0,0,0,0,0,0,0,0,0,0,0,0,0,0,0,0,0,0,0,0,0,0,0,0,0,0,0,0,0,0,0,0,0,0,0,0,0,0,0,0,0,0,0,2.5569,2.557,0,2.5643,2.5644,2.5645,2.5749,2.5751,2.5752,2.5754,2.5827,2.5827,2.5827,0,0,0,0,0,0,0,0,0,0,0,0,0,2.5517,2.5518,2.5569,2.557,2.5571,2.5643,2.5644,2.5645,2.5749,2.5751,2.5753,2.5755,2.5827,2.5827,2.5827,0,0,0,0,0,0,0,0,0,0,0,0,0,2.556,2.5518,2.5569,2.5631,2.5638,2.5643,2.5644,2.5645,2.5748,2.5751,2.5753,2.5756,2.5826,2.5827,2.5827,2.5776,0,0,2.5828,2.5829,0,0,0,0,0,0,0,0,2.5557,2.5562,2.5621,2.5627,2.5634,2.569,2.5652,2.5689,2.5747,2.5706,2.5754,2.5757,2.5779,2.5783,2.5791,2.5779,2.5782,2.5828,2.5829,2.5829,2.5829,0,0,0,0,0,0,0,2.5554,2.5559,2.5598,2.5622,2.563,2.5656,2.5665,2.566,2.5726,2.571,2.5718,2.5725,2.5783,2.579,2.5793,2.5783,2.5828,2.5829,2.5829,2.5829,2.5736,2.5734,0,0,0,0,0,0,2.5542,2.5556,2.5596,2.56,2.5602,2.5654,2.5664,2.5669,2.5727,2.5738,2.5723,2.573,2.5788,2.5793,2.5796,2.5742,2.5829,2.5829,2.5829,2.5739,2.5736,2.5733,0,0,0,0,0,0,2.5541,2.5545,2.5593,2.558,2.5589,2.5652,2.5657,2.5669,2.5677,2.5736,2.5749,2.5718,2.5791,2.5796,2.5781,2.5746,2.5829,2.583,2.5742,2.5738,2.5734,2.5632,0,0,0,0,0,0,2.5539,2.5544,2.5525,2.5579,2.5589,2.5576,2.5654,2.5669,2.5678,2.5687,2.5736,2.5746,2.5793,2.578,2.5781,2.5748,2.583,2.5746,2.574,2.5736,2.5639,2.5625,2.5613,0,0,0,0,0,2.5537,2.5492,2.5523,2.5527,2.5567,2.5574,2.5579,2.5635,2.5674,2.5656,2.5695,2.5745,2.575,2.5778,2.578,2.5746,2.5748,2.5742,2.5736,2.5644,2.5627,2.5613,0,0,0,0,0,0,2.543,2.55,2.5536,2.5507,2.5534,2.5592,2.557,2.5615,2.5631,2.5639,2.5707,2.5717,2.5694,2.5719,2.5749,2.5701,2.5757,2.5751,2.5686,2.567,2.5658,2.5653,2.583,0,0,0,0,0,2.5403,2.5404,2.5465,2.5434,2.5446,2.5505,2.551,2.5552,2.5582,2.5593,2.5631,2.5658,2.5666,2.5669,2.568,2.5643,2.5656,2.5621,2.5608,2.5597,2.5591,2.5576,2.5562,2.5713,2.5713,2.5713,0,0,2.5347,2.5386,2.5382,2.5413,2.5439,2.5438,2.5514,2.5509,2.551,2.5592,2.5582,2.561,2.5645,2.5619,2.561,2.5639,2.5553,2.559,2.558,2.5581,2.5568,2.5554,2.5541,2.5709,2.571,2.571,0,0,2.5246,2.5275,2.5254,2.5278,2.5317,2.5358,2.5352,2.5404,2.5426,2.5417,2.548,2.5481,2.5492,2.5516,2.5528,2.5439,2.5486,2.544,2.5373,2.5357,2.5345,2.5335,2.5305,2.5293,2.5434,2.5434,2.5434,0,2.5172,2.5174,2.5236,2.5229,2.5242,2.5318,2.5297,2.5318,2.5357,2.5364,2.5397,2.5415,2.5444,2.5426,2.5404,2.5412,2.5409,2.5435,2.5342,2.5333,2.5324,2.5296,2.5284,2.5428,2.5429,2.5429,2.543,0,2.5082,2.5083,2.5061,2.5099,2.5109,2.5095,2.5155,2.5158,2.5198,2.5235,2.5226,2.5263,2.5284,2.5282,2.5321,2.527,2.5288,2.533,2.5387,2.5303,2.5278,2.5267,2.542,2.5422,2.5424,2.5425,0,0,2.4915,2.499,2.4981,2.5,2.5049,2.5051,2.5041,2.5063,2.5064,2.5089,2.5083,2.5092,2.5133,2.5148,2.519,2.5176,2.5105,2.5221,2.5223,2.5199,2.5054,2.5023,2.5009,2.5136,2.5135,2.5133,2.5052,0,2.4824,2.4812,2.4869,2.4841,2.4844,2.4918,2.4909,2.4938,2.4973,2.498,2.5018,2.5025,2.5077,2.5087,2.5076,2.5116,2.5077,2.5122,2.5132,2.5131,2.5122,2.4996,2.4962,2.4883,2.5042,2.504,2.5039,0,2.4717,2.4738,2.4712,2.4765,2.4768,2.4759,2.4785,2.4791,2.4826,2.4853,2.487,2.492,2.4914,2.4968,2.4962,2.4992,2.4999,2.5019,2.5018,2.5021,2.5081,2.4997,2.4859,2.4848,2.5024,2.5025,2.5026,0,2.46,2.4622,2.461,2.4624,2.4685,2.4677,2.4702,2.4741,2.4751,2.4773,2.4781,2.4801,2.4812,2.4827,2.4881,2.4915,2.4869,2.4927,2.4892,2.489,2.4879,2.4879,2.4741,2.4881,2.4881,2.4882,2.4882,0,2.4493,2.4474,2.4558,2.455,2.4532,2.4598,2.4578,2.461,2.4644,2.4644,2.4708,2.4707,2.4778,2.4785,2.4827,2.4817,2.4821,2.4842,2.4854,2.4837,2.4835,2.4843,2.4851,2.4879,2.4879,2.488,2.488,0,2.4359,2.4414,2.4406,2.4466,2.4481,2.4464,2.4516,2.4511,2.4551,2.4551,2.4554,2.4616,2.4628,2.4684,2.4707,2.4736,2.4711,2.4733,2.47,2.4708,2.4669,2.4673,2.4533,2.4519,2.4666,2.4665,2.4664,0,2.4288,2.4276,2.4335,2.4341,2.4363,2.4371,2.4383,2.4447,2.4456,2.4497,2.4488,2.4505,2.4523,2.4538,2.4585,2.4604,2.4628,2.4578,2.4631,2.4616,2.4629,2.463,2.463,2.4566,2.4564,2.4563,2.4562,0,2.4157,2.4186,2.42,2.4225,2.4237,2.4259,2.4285,2.4286,2.4357,2.4364,2.4378,2.4392,2.4418,2.4435,2.4462,2.4488,2.4537,2.4545,2.4538,2.4521,2.4503,2.4514,2.467,2.4548,2.4549,2.455,2.4551,2.4551,2.4054,2.4047,2.4089,2.4103,2.413,2.4153,2.4153,2.4194,2.4207,2.4234,2.4271,2.428,2.4318,2.436,2.4383,2.4391,2.4418,2.4408,2.4405,2.4402,2.4394,2.4501,2.4396,2.4396,2.4397,2.4397,2.4398,0,2.3928,2.3958,2.3971,2.4007,2.4018,2.4065,2.4096,2.4103,2.4111,2.4142,2.4159,2.4175,2.4193,2.4242,2.4264,2.4261,2.4284,2.4265,2.4266,2.4272,2.4368,2.4372,2.4246,2.4246,2.4246,2.4246,2.4246,2.4246,2.3863,2.3856,2.3889,2.3896,2.3927,2.3938,2.3952,2.3974,2.4,2.4016,2.4032,2.4064,2.4103,2.4129,2.4147,2.4161,2.4167,2.414,2.4161,2.425,2.4265,2.4278,2.4283,2.414,2.414,2.4065,2.4065,2.4064]}]]